Content
SEND FEEDBACK

Daily
Averages
Monthly
Summary
United Kingdom

STANSTED MOUNTFITCHET, ENGLAND


Home > Europe > United Kingdom > England
Elevation: 348 feet     Latitude: 51 53N     Longitude: 000 14E

WEATHER
 
SELECT A DAY
Number of Records: 295,967;   Date Range: 7/1/96 - 7/29/14
 
SHARE

PRINT THIS DATA

[ ← Previous Day ]
WEATHER ALMANAC - NOVEMBER 1, 2013
[ Next Day → ]
[ °C ]   °F
Weather ElementAverageHighLow
Temperature52.8 °F55.4 °F (11:50 am)50 °F (7:20 am)
Dewpoint50.2 °F51.8 °F (1:20 pm)48.2 °F (6:20 am)
Humidity91.2 %100 % (7:20 am)82 % (11:50 am)
Barometer29.78 in29.92 in (12:50 am)29.56 in (10:50 pm)
Wind Speed8.9 mph15 mph (4:20 am)
Weather ElementAverage
Visibility5.7 mi
Wind DirectionS (180.2 °)

Weather ElementTotal
Precipitation---
Heating Degree Days12.3 (Base 65)
Growing Degree Days2.7 (Base 50)
Averaged from 47 records on November 1, 2013
WEATHER CONDITIONS BREAKOUT
WIND DIRECTION BREAKOUT
WEATHER BY HOUR - NOVEMBER 1, 2013
[ °C ]   °F
Local TimeTemperatureDewpointHumidityBarometerVisibilityWind DirectionWind SpeedGust SpeedPrecipitationEventsConditions
12:50 AM51.8 °F50.0 °F94 %29.92 in6.2 miSSW (210°)10.4 mphRainLight Rain
1:20 AM51.8 °F50.0 °F94 %29.92 in6.2 miSSW (210°)11.5 mphRainLight Rain
1:50 AM51.8 °F50.0 °F94 %29.92 in5.6 miSSW (210°)10.4 mphRainLight Rain
2:20 AM51.8 °F50.0 °F94 %29.89 in6.2 miSouth (190°)9.2 mphRainLight Rain
2:50 AM51.8 °F50.0 °F94 %29.89 in6.2 miSouth (190°)9.2 mphOvercast
3:20 AM53.6 °F50.0 °F88 %29.86 in6.2 miSSW (200°)13.8 mphOvercast
3:50 AM53.6 °F50.0 °F88 %29.86 in6.2 miSSW (210°)13.8 mphRainLight Rain
4:20 AM53.6 °F50.0 °F88 %29.86 in4.3 miSW (220°)15.0 mphRainLight Rain
4:50 AM51.8 °F50.0 °F94 %29.86 in4.3 miSW (230°)13.8 mphRainLight Rain
5:20 AM51.8 °F50.0 °F94 %29.86 in2.2 miWNW (290°)8.1 mphRainRain
5:50 AM51.8 °F50.0 °F94 %29.86 in6.2 miWSW (250°)6.9 mphMostly Cloudy
6:20 AM51.8 °F48.2 °F88 %29.86 in6.2 miWest (260°)5.8 mphPartly Cloudy
6:50 AM51.8 °F50.0 °F94 %29.86 in6.2 miWSW (240°)8.1 mphPartly Cloudy
7:20 AM50.0 °F50.0 °F100 %29.89 in6.2 miWSW (240°)6.9 mphPartly Cloudy
7:50 AM50.0 °F50.0 °F100 %29.89 in6.2 miSW (230°)8.1 mphPartly Cloudy
8:20 AM51.8 °F50.0 °F94 %29.89 in6.2 miSW (220°)8.1 mphPartly Cloudy
8:50 AM51.8 °F50.0 °F94 %29.89 in5.6 miSSW (210°)9.2 mphPartly Cloudy
9:20 AM51.8 °F50.0 °F94 %29.86 in6.2 miSSW (200°)8.1 mphPartly Cloudy
9:50 AM51.8 °F50.0 °F94 %29.86 in6.2 miSouth (190°)8.1 mphScattered Clouds
10:20 AM53.6 °F50.0 °F88 %29.86 in6.2 miSSW (200°)8.1 mphScattered Clouds
10:50 AM53.6 °F50.0 °F88 %29.86 in6.2 miSouth (190°)10.4 mphPartly Cloudy
11:20 AM53.6 °F50.0 °F88 %29.83 in6.2 miSouth (190°)9.2 mphPartly Cloudy
11:50 AM55.4 °F50.0 °F82 %29.83 in6.2 miSouth (190°)9.2 mphPartly Cloudy
12:20 PM55.4 °F50.0 °F82 %29.83 in6.2 miSouth (180°)10.4 mphMostly Cloudy
12:50 PM55.4 °F50.0 °F82 %29.80 in6.2 miSouth (180°)9.2 mphMostly Cloudy
1:20 PM55.4 °F51.8 °F88 %29.80 in6.2 miSouth (180°)10.4 mphMostly Cloudy
1:50 PM55.4 °F51.8 °F88 %29.77 in6.2 miSouth (180°)10.4 mphMostly Cloudy
2:20 PM55.4 °F51.8 °F88 %29.77 in6.2 miSouth (180°)11.5 mphMostly Cloudy
2:50 PM55.4 °F51.8 °F88 %29.74 in6.2 miSouth (180°)10.4 mphScattered Clouds
3:20 PM55.4 °F51.8 °F88 %29.74 in6.2 miSSW (200°)15.0 mphMostly Cloudy
3:50 PM55.4 °F51.8 °F88 %29.74 in6.2 miSSW (200°)11.5 mphMostly Cloudy
4:20 PM55.4 °F51.8 °F88 %29.71 in6.2 miSouth (190°)10.4 mphMostly Cloudy
4:50 PM53.6 °F51.8 °F94 %29.71 in6.2 miSouth (190°)9.2 mphMostly Cloudy
5:20 PM53.6 °F50.0 °F88 %29.71 in6.2 miSouth (180°)9.2 mphMostly Cloudy
5:50 PM53.6 °F50.0 °F88 %29.71 in6.2 miSouth (180°)9.2 mphScattered Clouds
6:20 PM51.8 °F50.0 °F94 %29.68 in6.2 miSouth (170°)9.2 mphPartly Cloudy
6:50 PM51.8 °F48.2 °F88 %29.65 in6.2 miSouth (170°)9.2 mphPartly Cloudy
7:20 PM51.8 °F48.2 °F88 %29.65 inSSE (160°)6.9 mphClear
7:50 PM51.8 °F48.2 °F88 %29.65 in6.2 miSSE (160°)5.8 mphPartly Cloudy
8:20 PM51.8 °F50.0 °F94 %29.62 in5.0 miVariable4.6 mphPartly Cloudy
8:50 PM50.0 °F50.0 °F100 %29.62 in3.1 miSE (140°)5.8 mphScattered Clouds
9:20 PM51.8 °F50.0 °F94 %29.62 inSE (140°)6.9 mphScattered Clouds
9:50 PM51.8 °F50.0 °F94 %29.59 inESE (120°)6.9 mphRainLight Rain
10:20 PM51.8 °F50.0 °F94 %29.59 inESE (110°)5.8 mphRainLight Rain
10:50 PM51.8 °F50.0 °F94 %29.56 inESE (110°)4.6 mphRainLight Rain
11:20 PM51.8 °F50.0 °F94 %29.56 in1.8 miVariable3.5 mphDrizzle
11:50 PM51.8 °F50.0 °F94 %29.56 in1.8 miVariable2.3 mphRainLight Rain
Hourly data recorded from EGSS, located miles away from Stansted Mountfitchet, England







STORIES FROM OUR PARTNERS